Showing default

CHAMRAN-1, 61072

Orbit data source: Space-Track

CHAMRAN-1, 61072 is an Iranian payload satellite in LEO that was launched on Sat, 14 Sep 2024 UTC via a QAEM-100 launch vehicle from the Sharud Missile Test Site (SMTS). Payload-class satellites include a variety of spacecraft equipped with specific instruments for various scientific and technological missions. These include communications satellites like Starlink; space stations such as the ISS; scientific satellites like the Hubble; Earth observation satellites from companies like Planet Labs, Umbra, and HawkEye 360; GPS; miniature CubeSats for education and research; and military/defense satellites.

Loading next visibility...
Identifier
61072, 2024-165B
Orbit
LEO
Last TLE update
5 hours ago
Origin
Manufacturer
IEI
Mission
Operational Defense Communications
Bus & Motor
Unknown
Mass
60 kg wet, 60 kg dry
Launch date (UTC)
2024-09-14 (10 months ago)
Launch vehicle
QAEM-100
Launch site
Sharud Missile Test Site (SMTS)
Object type
Payload
Rocket body
Debris
Shape & HBR
Box, 0.5 m
Radar Cross Section
0.375 m², Medium (>0.1 m² and < 1m²)

Expand to show TLE details & history

TLE from 5 hours ago
0 CHAMRAN-1
1 61072U 24165B   25181.89379244  .00002988  00000-0  20607-3 0  9992
2 61072  64.0898 113.9921 0023882 314.1538  45.7612 15.07706625 43648
Epoch: 2025-06-30T21:27Z
TLE epoch observation values (Epoch: 2025-06-30T21:27:03.666Z)
Latitude
-0.00003°
Longitude
-126.97025°
Altitude
533.66 km
Speed
7.603 km/s
True Right ascension
07h 35m 58s
True Declination
0° 00' 00"
Sunlit
Object was in daylight at epoch
Visualization orbit readout
Latitude
29.12067°
Longitude
-112.02734°
Altitude
542.518 km
Speed
7.596 km/s
Apparent Right ascension
05h 45m 40s
Apparent Declination
-5° 45' 15"
Sunlit
Object is in daylight
Visualization observer readout
Local Sidereal Time
13:59:20
Azimuth
288.304° WNW
Elevation
-28.987°
Doppler factor
1
Orbital elements
Apogee altitude
558.381 km
Perigee altitude
525.329 km
Semi-major axis
6,919.992 km
Eccentricity
0.00239
Inclination
64.0898°
RAAN
113.9921°
Arg. of periapsis
314.1538°
True anomaly
Unknown
Mean anomaly
45.7612°
Eccentric anomaly
Unknown
Mean motion
3.77038 °/min
Orbital period
95.48 mins
BSTAR
0.00020607
Loading maneuver chart data...
Loading SW <> Apogee altitude chart data...
Loading historical data...
Loading historical data...
Loading historical data...
Loading historical data...
Loading historical data...
Loading historical data...
Loading historical data...
Other satellites on launch #165 in the year 2024 (2024-09-14 UTC)

CHAMRAN-1 Visibility forecast

Observer location: undefined°, undefined°

Span
Click to sort rows by Start time (UTC) header in descending order
Start Az.
Max El. time (UTC)
Max El. Az.
Max El.
End time (UTC)
End Az.
7 mins2025-07-01 05:56:13.108Z335.996° NNW2025-07-01 06:00:13.108Z82.185° E39.384°2025-07-01 06:03:13.108Z132.723° SE
6 mins2025-07-01 21:29:13.108Z225.333° WSW2025-07-01 21:32:13.108Z311.024° NW41.949°2025-07-01 21:35:13.108Z24.284° NE
|